| time (UTC) | temp F | wind direction | speed knots | gust knots | rain 1hr in | rain 24hr in | rain mn in | humidity % | barometer mb |
| 20260507044602 | 0 | 0.0 | 0.0 | 0.00 | 0.68 | 0.00 | 1014.8 | ||
| 20260507043100 | 0 | 0.0 | 0.0 | 0.00 | 0.68 | 0.00 | 1014.7 | ||
| 20260507041551 | 0 | 0.0 | 0.0 | 0.00 | 0.68 | 0.00 | 1014.6 | ||
| 20260507040047 | 0 | 0.0 | 0.0 | 0.00 | 0.68 | 0.00 | 1014.6 | ||
| 20260507034554 | 0 | 0.0 | 0.0 | 0.00 | 0.68 | 0.00 | 1014.5 | ||
| 20260507033043 | 0 | 0.0 | 0.0 | 0.00 | 0.68 | 0.00 | 1014.5 | ||
| 20260507031535 | 0 | 0.0 | 0.0 | 0.00 | 0.68 | 0.00 | 1014.5 | ||
| 20260507030030 | 0 | 0.0 | 0.0 | 0.00 | 0.68 | 0.00 | 1014.6 | ||
| 20260507024543 | 0 | 0.0 | 0.0 | 0.00 | 0.68 | 0.00 | 1014.7 | ||
| 20260507023020 | 0 | 0.0 | 0.0 | 0.00 | 0.68 | 0.00 | 1014.5 | ||
| 20260507021517 | 0 | 0.0 | 0.0 | 0.00 | 0.68 | 0.00 | 1014.6 | ||
| 20260507020013 | 0 | 0.0 | 0.0 | 0.00 | 0.68 | 0.00 | 1014.4 | ||
| 20260507014510 | 0 | 0.0 | 0.0 | 0.00 | 0.68 | 0.00 | 1014.4 | ||
| 20260507013002 | 0 | 0.0 | 0.0 | 0.00 | 0.68 | 0.00 | 1014.4 | ||
| 20260507011559 | 0 | 0.0 | 0.0 | 0.00 | 0.68 | 0.00 | 1014.4 | ||
| 20260507010111 | 0 | 0.0 | 0.0 | 0.00 | 0.68 | 0.00 | 1014.7 | ||
| 20260507004550 | 0 | 0.0 | 0.0 | 0.00 | 0.68 | 0.00 | 1014.6 | ||
| 20260507003045 | 0 | 0.0 | 0.0 | 0.00 | 0.68 | 0.00 | 1014.8 | ||
| 20260507001549 | 0 | 0.0 | 0.0 | 0.00 | 0.68 | 0.00 | 1014.8 | ||
| 20260507000037 | 0 | 0.0 | 0.0 | 0.00 | 0.68 | 0.00 | 1014.9 | ||
| 20260506234532 | 0 | 0.0 | 0.0 | 0.00 | 0.68 | 0.00 | 1014.9 | ||
| 20260506233030 | 51 | 134 | 0.9 | 2.6 | 0.00 | 0.68 | 0.00 | 96 | 1015.0 |
| 20260506231528 | 52 | 131 | 0.9 | 2.6 | 0.00 | 0.68 | 0.00 | 96 | 1015.0 |
| 20260506230029 | 52 | 126 | 0.0 | 1.7 | 0.00 | 0.68 | 0.00 | 96 | 1015.1 |
| 20260506224527 | 52 | 162 | 1.7 | 3.5 | 0.00 | 0.69 | 0.00 | 96 | 1015.1 |
| 20260506223026 | 52 | 155 | 0.9 | 4.3 | 0.00 | 0.69 | 0.00 | 96 | 1015.1 |
| 20260506221522 | 53 | 83 | 1.7 | 4.3 | 0.01 | 0.69 | 0.00 | 96 | 1015.1 |
| 20260506220020 | 53 | 142 | 1.7 | 2.6 | 0.02 | 0.69 | 0.00 | 96 | 1014.9 |
| 20260506214519 | 53 | 229 | 0.0 | 0.9 | 0.04 | 0.69 | 0.69 | 96 | 1015.0 |
| 20260506213018 | 53 | 152 | 0.0 | 0.9 | 0.05 | 0.69 | 0.69 | 96 | 1015.0 |
| 20260506211516 | 53 | 160 | 1.7 | 3.5 | 0.05 | 0.68 | 0.68 | 96 | 1015.0 |
| 20260506210016 | 53 | 125 | 0.9 | 4.3 | 0.04 | 0.66 | 0.66 | 96 | 1014.7 |
| 20260506204515 | 53 | 150 | 0.9 | 2.6 | 0.03 | 0.66 | 0.65 | 96 | 1014.7 |
| 20260506203013 | 54 | 124 | 0.0 | 3.5 | 0.05 | 0.65 | 0.64 | 96 | 1014.5 |
| 20260506201512 | 54 | 133 | 1.7 | 5.2 | 0.07 | 0.65 | 0.63 | 96 | 1014.6 |
| 20260506200012 | 54 | 72 | 0.0 | 0.9 | 0.10 | 0.64 | 0.62 | 96 | 1014.3 |
| 20260506194507 | 55 | 65 | 0.9 | 1.7 | 0.14 | 0.65 | 0.61 | 96 | 1014.1 |
| 20260506193004 | 55 | 1 | 0.9 | 1.7 | 0.20 | 0.63 | 0.59 | 96 | 1014.1 |
| 20260506191504 | 55 | 273 | 0.9 | 3.5 | 0.24 | 0.60 | 0.56 | 96 | 1013.9 |
| 20260506190003 | 56 | 150 | 1.7 | 5.2 | 0.28 | 0.56 | 0.52 | 96 | 1013.3 |
| 20260506184506 | 56 | 150 | 1.7 | 4.3 | 0.26 | 0.53 | 0.46 | 96 | 1013.3 |
| 20260506183107 | 56 | 161 | 1.7 | 4.3 | 0.20 | 0.46 | 0.39 | 95 | 1013.1 |
| 20260506181558 | 57 | 177 | 2.6 | 6.1 | 0.20 | 0.38 | 0.31 | 94 | 1013.0 |
| 20260506180057 | 57 | 248 | 2.6 | 7.8 | 0.17 | 0.28 | 0.23 | 91 | 1012.8 |
| 20260506174606 | 57 | 140 | 2.6 | 4.3 | 0.14 | 0.30 | 0.20 | 90 | 1012.6 |
| 20260506173126 | 57 | 136 | 0.0 | 1.7 | 0.13 | 0.28 | 0.19 | 90 | 1012.7 |
| 20260506171556 | 58 | 149 | 0.9 | 3.5 | 0.05 | 0.20 | 0.11 | 88 | 1012.7 |
| 20260506170055 | 59 | 315 | 2.6 | 9.6 | 0.00 | 0.16 | 0.06 | 88 | 1012.5 |
| 20260506164555 | 60 | 222 | 1.7 | 6.1 | 0.00 | 0.20 | 0.06 | 91 | 1012.2 |
| 20260506163055 | 60 | 70 | 0.9 | 2.6 | 0.00 | 0.20 | 0.06 | 92 | 1012.1 |
| 20260506161605 | 60 | 360 | 4.3 | 8.7 | 0.00 | 0.20 | 0.06 | 91 | 1012.0 |
| 20260506160054 | 61 | 338 | 3.5 | 5.2 | 0.00 | 0.20 | 0.06 | 88 | 1012.0 |
| 20260506154557 | 61 | 39 | 3.5 | 4.3 | 0.00 | 0.24 | 0.06 | 84 | 1011.5 |
| 20260506153052 | 61 | 12 | 3.5 | 6.1 | 0.00 | 0.24 | 0.06 | 86 | 1011.5 |
| 20260506151552 | 61 | 9 | 5.2 | 8.7 | 0.00 | 0.24 | 0.06 | 85 | 1011.5 |
| 20260506150058 | 62 | 340 | 4.3 | 6.1 | 0.01 | 0.24 | 0.06 | 82 | 1011.7 |
| 20260506144603 | 63 | 302 | 1.7 | 4.3 | 0.01 | 0.31 | 0.06 | 89 | 1011.8 |
| 20260506143053 | 63 | 122 | 0.0 | 0.9 | 0.05 | 0.31 | 0.06 | 88 | 1011.7 |
| 20260506141550 | 63 | 204 | 0.9 | 5.2 | 0.05 | 0.31 | 0.06 | 87 | 1011.8 |
| 20260506134547 | 64 | 184 | 2.6 | 11.3 | 0.03 | 0.37 | 0.05 | 80 | 1011.7 |
| 20260506133100 | 66 | 172 | 7.8 | 17.4 | 0.00 | 0.34 | 0.02 | 74 | 1011.7 |
| 20260506131546 | 67 | 148 | 13.0 | 22.6 | 0.00 | 0.34 | 0.02 | 71 | 1011.8 |
| 20260506130110 | 68 | 186 | 6.1 | 14.8 | 0.01 | 0.34 | 0.02 | 75 | 1012.1 |
| 20260506124540 | 66 | 184 | 7.0 | 11.3 | 0.01 | 0.50 | 0.02 | 79 | 1012.3 |
| 20260506123044 | 64 | 224 | 6.1 | 13.0 | 0.01 | 0.50 | 0.02 | 83 | 1012.4 |
| 20260506121545 | 63 | 167 | 5.2 | 16.5 | 0.01 | 0.50 | 0.02 | 82 | 1012.4 |
| 20260506120037 | 66 | 200 | 7.0 | 20.0 | 0.00 | 0.50 | 0.01 | 74 | 1012.2 |
| 20260506114536 | 67 | 233 | 8.7 | 16.5 | 0.00 | 0.56 | 0.01 | 73 | 1012.2 |
| 20260506113037 | 65 | 174 | 7.0 | 18.2 | 0.00 | 0.56 | 0.01 | 76 | 1012.2 |
| 20260506111533 | 64 | 187 | 9.6 | 17.4 | 0.00 | 0.56 | 0.01 | 77 | 1012.3 |
| 20260506110040 | 64 | 269 | 3.5 | 14.8 | 0.00 | 0.56 | 0.01 | 77 | 1012.7 |
| 20260506104532 | 64 | 184 | 8.7 | 16.5 | 0.00 | 0.65 | 0.01 | 76 | 1012.9 |
| 20260506103029 | 65 | 180 | 8.7 | 18.2 | 0.00 | 0.65 | 0.01 | 77 | 1012.8 |
| 20260506101532 | 65 | 222 | 7.0 | 16.5 | 0.00 | 0.65 | 0.01 | 76 | 1012.8 |
| 20260506100025 | 64 | 207 | 10.4 | 20.0 | 0.00 | 0.65 | 0.01 | 76 | 1012.7 |
| 20260506094526 | 64 | 181 | 6.1 | 15.6 | 0.00 | 0.65 | 0.01 | 78 | 1012.6 |
| 20260506093030 | 62 | 181 | 9.6 | 18.2 | 0.00 | 0.65 | 0.01 | 79 | 1012.8 |
| 20260506091520 | 62 | 207 | 7.0 | 18.2 | 0.00 | 0.65 | 0.01 | 77 | 1012.8 |
| 20260506090017 | 62 | 174 | 6.1 | 13.9 | 0.00 | 0.65 | 0.01 | 78 | 1012.9 |
| 20260506084514 | 61 | 229 | 8.7 | 21.7 | 0.00 | 0.65 | 0.01 | 82 | 1012.8 |
| 20260506083009 | 59 | 197 | 4.3 | 9.6 | 0.00 | 0.65 | 0.01 | 90 | 1012.6 |
| 20260506081514 | 58 | 180 | 3.5 | 11.3 | 0.00 | 0.65 | 0.01 | 90 | 1012.8 |
| 20260506073007 | 58 | 122 | 6.1 | 15.6 | 0.00 | 0.67 | 0.01 | 89 | 1012.5 |
| 20260506071506 | 59 | 162 | 6.1 | 17.4 | 0.00 | 0.67 | 0.01 | 89 | 1012.4 |
| 20260506061601 | 57 | 146 | 7.0 | 14.8 | 0.00 | 0.67 | 0.01 | 90 | 1012.2 |